Location: Loup Canal
(41.4930°N, 97.5670°W)
Time: 06:02:35
(UTC-05:00)

Daily predictions for brighter satellites

Satellite Brightness Start Highest point End
(mag) Time Altitude Azimuth Time Altitude Azimuth Time Altitude Azimuth
Cosmos 1656 Rocket 3.7 21:17:37 10° NNW 21:23:05 88° WSW 21:28:36 10° SSE
Cosmos 1536 Rocket 3.6 21:20:04 10° S 21:24:23 89° WNW 21:28:44 10° N
Envisat 3.0 21:20:25 10° SSE 21:25:28 75° ENE 21:30:33 10° N
COSMOS 2455 3.9 21:21:27 10° NW 21:27:06 44° WSW 21:32:44 10° S
Helios 1B rocket 2.5 21:23:52 10° NNE 21:27:58 61° ESE 21:32:03 10° S
USA 186 2.6 21:25:38 10° S 21:28:44 49° W 21:31:47 10° NNW
Meteor 2-4 Rocket 4.0 21:23:52 10° SSE 21:29:15 49° E 21:34:50 10° NNE
PSLV R/B 3.1 21:26:26 10° W 21:29:33 70° S 21:32:39 10° ESE
Cosmos 374 Rocket 4.5 21:31:53 10° NW 21:35:37 68° WSW 21:39:37 10° SSE
Cosmos 192 4.5 21:30:52 10° S 21:35:37 53° ESE 21:40:24 10° NNE
Cosmos 405 3.8 21:33:53 10° N 21:37:11 35° ENE 21:40:27 10° SE
Cosmos 1025 Rocket 3.6 21:37:32 10° SSE 21:41:27 37° E 21:45:24 10° NNE
GENESIS II 4.2 21:38:57 10° NW 21:42:55 85° WSW 21:46:42 11° SSE
Spot 1 4.3 21:40:42 10° S 21:45:12 77° WSW 21:49:30 10° NNW
Cosmos 1943 Rocket 4.2 21:40:46 10° NW 21:45:13 25° WSW 21:49:38 10° SSW
CZ-3A R/B 1.9 21:42:42 10° SSW 21:46:50 24° SSE 21:48:45 10° E
Cosmos 2074 Rocket 4.1 21:43:10 10° N 21:49:27 88° W 21:55:44 10° S
Cosmos 405 Rocket 3.4 21:47:24 10° SSW 21:51:07 57° WNW 21:54:55 10° N
Cosmos 1980 Rocket 4.4 21:49:40 10° NNE 21:51:22 11° NE 21:53:04 10° ENE
Aureole 1 Rocket 2.2 21:49:02 10° SSW 21:52:18 81° WNW 21:55:19 10° NNE
Cosmos 2184 Rocket 4.1 21:46:26 10° N 21:52:49 86° W 21:59:06 10° S
Tiangong 2 1.0 21:53:58 10° WSW 21:57:09 88° S 22:00:20 10° ENE
Okean 2 3.8 21:54:14 10° SSE 21:58:06 43° E 22:01:59 10° NNE
Cosmos 1371 Rocket 4.2 21:54:04 10° NNW 21:59:21 62° ENE 22:03:45 15° SSE
Cosmos 1441 Rocket 3.1 21:56:06 10° S 21:59:50 89° WNW 22:03:35 10° N
Lacrosse 5 rocket 4.5 21:59:11 10° NNW 22:00:43 11° N 22:02:15 10° NNE
ARGOS 3.8 21:58:32 14° SE 22:02:47 41° ENE 22:07:52 10° N
Resurs 01 Rocket 4.3 22:02:34 10° SW 22:05:30 17° W 22:08:26 10° NW
ERS-1 Rocket 3.0 22:01:27 12° SSE 22:06:11 76° ENE 22:11:13 10° N
Meteor 1-23 Rocket 4.2 22:01:02 10° S 22:06:35 78° E 22:12:13 10° NNE
Meteor 1-29 4.0 22:04:54 10° N 22:08:09 46° WNW 22:11:23 10° SSW
NOAA 11 4.3 22:05:25 14° SSE 22:10:08 66° ENE 22:15:32 10° N
Terra 3.8 22:07:56 10° E 22:10:32 15° ENE 22:13:16 10° NNE
SPOT 5 3.2 22:09:29 18° SE 22:12:17 42° ENE 22:16:24 10° N
CENTAUR R/B 4.0 22:08:55 10° NW 22:16:23 44° WSW 22:24:11 10° S
H-2A R/B 4.1 22:15:12 12° E 22:17:25 16° ENE 22:20:09 10° NNE
Nadezhda 1 Rocket 4.4 22:15:26 10° SSW 22:21:45 69° W 22:28:11 10° N
MetOp-B 4.1 22:18:17 16° SSE 22:22:32 77° ENE 22:27:54 10° N
Meteor 1-15 Rocket 4.2 22:19:34 10° N 22:25:11 87° W 22:29:49 15° S
Cosmos 2082 Rocket 2.7 22:23:35 17° SSE 22:27:26 37° ESE 22:32:36 10° NE
Cosmos 2278 3.9 22:22:06 10° NNW 22:27:44 58° ENE 22:31:16 23° SE
MOS 1-B Rocket 4.0 22:26:28 17° SSE 22:31:07 89° W 22:37:39 10° NNW
Meteor 2-19 Rocket 4.4 22:25:19 10° N 22:31:28 79° E 22:36:04 19° SSE
ISS -2.0 22:29:21 10° W 22:32:24 34° NNW 22:35:28 10° NE
SL-8 Rocket 4.4 22:28:46 10° N 22:34:50 49° ENE 22:38:28 24° SE
Cosmos 2154 Rocket 4.2 22:30:35 10° N 22:36:56 74° W 22:42:32 14° S
SL-24 DEB 4.2 22:35:50 25° SSE 22:38:31 69° E 22:43:08 10° N
ASTEX 1 4.4 22:35:15 10° SSW 22:39:55 44° W 22:44:36 10° NNW
Cosmos 1624 Rocket 4.2 22:37:15 10° NNW 22:42:31 67° WSW 22:45:57 22° S
OAO 2 Rocket 4.0 22:38:10 10° WSW 22:42:38 35° S 22:44:05 29° SSE
H-2A R/B 2.1 22:40:27 27° SE 22:42:59 58° ENE 22:47:56 10° N
Cosmos 2228 3.1 22:40:24 10° N 22:44:40 60° E 22:46:19 34° SE
Cosmos 921 Rocket 3.0 22:42:51 10° NNW 22:47:21 90° WNW 22:49:22 32° SSE
Cosmos 2369 3.7 22:41:49 10° NNW 22:47:36 83° ENE 22:50:41 29° SSE
Cosmos 1697 Rocket 3.3 22:42:52 10° NNW 22:48:14 43° ENE 22:50:57 26° ESE
Meteor 1-4 Rocket 3.3 22:44:58 10° N 22:48:17 35° ENE 22:48:46 33° E
SL-08 RB Rocket 3.6 22:50:33 30° S 22:52:44 85° WSW 22:57:14 10° NNW
SL-16 R/B 4.5 22:51:13 10° NNE 22:53:40 13° NE 22:56:06 10° ENE
Cosmos 1656 3.7 22:50:07 10° NNW 22:55:34 69° ENE 22:58:04 33° SE
Cosmos 1892 Rocket 3.9 22:52:30 17° SSW 22:55:53 66° W 23:00:17 10° N
Cosmos 1437 Rocket 4.1 22:54:58 10° NNW 22:58:30 35° W 23:00:44 19° SSW
TELKOM 3 3.6 22:56:31 10° NW 22:58:59 66° NNE 22:59:15 61° ENE
Cosmos 2056 Rocket 4.2 22:56:49 10° NNW 23:01:46 47° WSW 23:04:38 23° SSW
Cosmos 1602 Rocket 3.9 23:01:03 40° ESE 23:01:49 45° E 23:05:57 10° NNE
Cosmos 1271 Rocket 4.2 23:01:15 10° NNE 23:04:24 23° ENE 23:04:38 23° ENE
DMSP B5D2-2 4.1 22:59:13 10° NNE 23:04:27 59° E 23:06:34 35° SSE
Cosmos 1833 Rocket 2.6 23:00:38 20° S 23:04:32 71° ESE 23:10:09 10° NNE
deb Chang Zheng 4 4.0 23:07:21 10° NNE 23:11:27 41° E 23:11:40 41° ESE
Cosmos 1269 Rocket 4.5 23:10:46 37° SE 23:11:39 40° ESE 23:16:34 10° NE
Timation 2 Rocket 4.1 23:08:52 30° S 23:11:46 53° ESE 23:17:45 10° NE
SL-08 R/B 4.4 23:08:51 10° N 23:14:58 74° E 23:17:35 36° SSE
Cosmos 1953 4.2 23:16:05 10° NNE 23:19:00 19° ENE 23:19:02 19° ENE
Cosmos 1066 Rocket 4.2 23:16:09 27° SSW 23:19:19 81° W 23:24:59 10° N
COSMOS 2487 3.8 23:17:34 19° SW 23:19:44 39° WNW 23:23:07 10° N
Cosmos 1420 Rocket 4.1 23:14:38 10° NNW 23:19:54 66° ENE 23:21:26 44° SE
Cosmos 2218 Rocket 3.9 23:15:04 10° N 23:21:16 87° W 23:24:05 35° S
Cosmos 1048 Rocket 4.1 23:22:40 46° SE 23:23:36 53° ESE 23:28:37 10° NNE
Meteor 2-14 Rocket 4.4 23:17:41 10° N 23:23:45 67° E 23:25:54 41° SSE
Cosmos 1809 Rocket 4.4 23:19:45 10° N 23:25:52 86° W 23:28:27 37° S
CARTOSAT-1 3.4 23:27:22 61° SSE 23:28:05 85° E 23:32:26 10° NNW
Cosmos 2058 Rocket 4.5 23:28:19 10° NNW 23:32:16 33° W 23:34:09 23° SW
Landsat 7 4.1 23:31:19 42° SSW 23:32:44 61° W 23:37:27 10° NNW
Cosmos 1452 Rocket 3.8 23:28:36 10° NNW 23:33:49 62° WSW 23:35:24 42° SSW
Tiangong 2 2.1 23:30:49 10° W 23:33:11 44° WNW 23:33:11 44° WNW
SPOT 1/Viking Rocket 4.4 23:32:18 27° SSW 23:34:35 41° W 23:39:28 10° NNW
Cosmos 1766 3.1 23:31:07 10° N 23:35:01 76° ENE 23:35:01 76° ENE
Cosmos 1544 3.9 23:32:59 10° N 23:35:56 40° NE 23:35:56 40° NE
Cosmos 1980 Rocket 2.3 23:30:57 10° NNW 23:36:35 63° ENE 23:38:08 45° ESE
Meteor 1-21 4.1 23:39:11 47° S 23:40:50 76° E 23:46:35 10° NNE
Lacrosse 5 rocket 3.9 23:38:14 10° NNW 23:41:37 20° NNE 23:45:00 10° ENE
Meteor 2-16 Rocket 4.4 23:39:05 10° N 23:45:15 87° E 23:47:10 47° S
Cosmos 2322 Rocket 3.6 23:41:59 10° N 23:46:56 29° NE 23:48:59 23° E
Terra 2.0 23:46:49 51° SSW 23:47:45 62° W 23:52:30 10° NNW
Nadezhda 3 Rocket 4.0 23:46:50 46° SSE 23:48:38 66° E 23:54:56 10° NNE
USA 267 3.5 23:46:27 10° ENE 23:52:39 44° SE 23:52:59 44° SE
H-2A R/B 2.5 23:52:19 50° SW 23:52:57 55° W 23:57:25 10° NNW
IGS 5A 3.9 23:54:43 48° WSW 23:54:58 49° W 23:59:02 10° NNW
Cosmos 1812 Rocket 3.7 23:50:51 10° NNW 23:55:17 64° W 23:55:42 61° SW
